Find Starlink 3357

NORAD ID: 51150 Int'l Des: 2022-005 Owner: SPXS Country: US Constellation: starlink operational
LEOCIRCULAR

Live Position

Loading 3D Globe...

About Starlink 3357

Description loading...

Upcoming Passes

Passes for default location (London). Set your location on the main map for personalized predictions.

Altitude History

Loading altitude history...

Two-Line Element Set

1 51150U 22005AY 26107.08052352 .00000747 00000-0 65000-4 0 9995
2 51150 53.2163 126.3899 0001189 86.4816 273.6312 15.08835958234548
Epoch: Apr 17, 2026 • Age: 13 hours

Current Status

Altitude 544.7 km
Velocity 7.60 km/s
Sub-Earth Point 49.55°N, 170.52°E
Launch Date Jan 19, 2022
Age 4.2 years
Type internet

Technical Details

Classification Payload
Mass 297.00 kg
Dry Mass 275.00 kg
Total Mass 297.00 kg
Length 0.20 m
Diameter 2.80 m
Span 9.00 m
Shape Box + pan
Manufacturer SPXS
Bus Type Starlink
Phase Status In Orbit
Owner/State SPXS/US

Most Searched